STARLINK-38422, 100637

Orbit data source: Space-Track

STARLINK-38422, 100637 is a payload satellite owned by SpaceX/Seattle (US) in LEO that was launched on Sun, 06 Sep 2026 UTC launched from the Air Force Western Test Range (AFWTR). Payload-class satellites include a variety of spacecraft equipped with specific instruments for various scientific and technological missions. These include communications satellites like Starlink; space stations such as the ISS; scientific satellites like the Hubble; Earth observation satellites from companies like Planet Labs, Umbra, and HawkEye 360; GPS; miniature CubeSats for education and research; and military/defense satellites.

Not visible in the next 10 days
Identifier
100637, 2026-204Y
Orbit
LEO
Country
Flag of USUS
Related business
Manufacturer
SpaceX/Seattle
Mission
Operational spacecraft
Bus & Motor
STARLINK V2MO, Unknown motor
Mass
575 kg wet, ~530 kg dry
Launch date (UTC)
2026-09-06 (5 days ago)
Launch vehicle
Unknown
Launch site
Air Force Western Test Range (AFWTR)
Object type
Payload
Rocket body
Debris
Shape & HBR
BOX + PAN, 17.7 m
Radar Cross Section
RCS unknown

Expand to show TLE details & history
Last TLE update: 22 hours ago

TLE from 22 hours ago
0 STARLINK-38422
1 A0637U          26253.50709896 -.00291823  35112-4 -54362-3 0  9994
2 A0637  69.9974 266.4372 0004415 268.4880  91.5826 16.00707886   635
Epoch: 2026-09-10T12:10Z
TLE epoch observation values (Epoch: 2026-09-10T12:10:13.350Z)
Latitude
0.00004°
Longitude
94.33777°
Altitude
275.072 km
Speed
7.743 km/s
True Right ascension
17h 45m 44s
True Declination
0° 00' 00"
Sunlit
Object was in daylight at epoch
Visualization orbit readout
Latitude
Unknown
Longitude
Unknown
Altitude
Unknown
Speed
Unknown
Apparent Right ascension
Unknown
Apparent Declination
Unknown
Sunlit
N/A
Visualization observer readout
Local Sidereal Time
02:29:47
Azimuth
Unknown
Elevation
Unknown
Doppler factor
Unknown
Orbital elements
Apogee altitude
273.248 km
Perigee altitude
267.378 km
Semi-major axis
6,648.45 km
Eccentricity
0.00044
Inclination
69.9974°
RAAN
266.4372°
Arg. of periapsis
268.488°
True anomaly
91.63317°
Mean anomaly
91.5826°
Eccentric anomaly
91.60789°
Mean motion
4.00371 °/min
Orbital period
89.92 mins
BSTAR
-0.00054362
Loading maneuver chart data...
Computing Atmospheric mass density...
Loading historical data...
Loading historical data...
Loading historical data...
Loading historical data...
Loading historical data...
Loading historical data...
Loading historical data...

Documentation

Showing up to 5 results
|